Regional Weather Roundup
Issued by NWS

Home | Current Version | Previous Version | Graphics & Text | Print | Product List | Glossary On
Versions: 1 2 3 4 5 6 7 8 9 10 11 12 13 14 15 16 17 18 19 20 21 22 23 24 25 26 27 28 29 30 31 32 33 34 35 36 37 38 39 40 41 42 43 44 45 46 47 48 49 50
000
ASUS43 KTOP 280608
RWRKS

WEATHER ROUNDUP FOR KANSAS
NATIONAL WEATHER SERVICE GOODLAND KS
100 AM CDT WED JUN 28 2017

NOTE:  "FAIR" INDICATES FEW OR NO CLOUDS BELOW 12,000 FEET WITH NO
SIGNIFICANT WEATHER AND/OR OBSTRUCTIONS TO VISIBILITY.

KSZ001>006-013>018-027>032-041>047-280700-
NORTHWEST KANSAS

CITY           SKY/WX    TMP DP  RH WIND       PRES   REMARKS
GOODLAND       CLOUDY    68  59  73 SE17      29.78R
6HR MIN TEMP:  68; 6HR MAX TEMP:  90; 6HR PCP:  0.06;

HAYS           CLOUDY    81  63  54 S23G30    29.77R
HILL CITY      TSTM      71  64  78 SE10      29.82R
6HR MIN TEMP:  71; 6HR MAX TEMP:  92; 6HR PCP:  0.09;

RUSSELL        CLOUDY    82  62  50 S25G38    29.75R
6HR MIN TEMP:  81; 6HR MAX TEMP:  94;

$$

KSZ061>065-074>080-084>089-280700-
SOUTHWEST KANSAS

CITY           SKY/WX    TMP DP  RH WIND       PRES   REMARKS
DODGE CITY     MOCLDY    78  61  55 S24G37    29.79S
6HR MIN TEMP:  78; 6HR MAX TEMP:  91;

ELKHART          N/A     76  47  36 S21         N/A
GARDEN CITY    CLOUDY    78  59  51 S24G32    29.77R
6HR MIN TEMP:  78; 6HR MAX TEMP:  92;

GREAT BEND     CLOUDY    80  63  55 S23G31    29.79
LIBERAL        PTCLDY    78  60  53 S25G36    29.80F
PRATT          PTCLDY    77  62  59 S21G31    29.81F
6HR MIN TEMP:  77; 6HR MAX TEMP:  87;

$$

KSZ066>073-081>083-090>101-280700-
SOUTHEAST KANSAS

CITY           SKY/WX    TMP DP  RH WIND       PRES   REMARKS
CHANUTE          N/A    N/A N/A N/A MISG      29.90F
COFFEYVILLE    CLEAR     74  65  73 S10       29.92F HAZE
6HR MIN TEMP:  74; 6HR MAX TEMP:  85;

HUTCHINSON     CLOUDY    79  64  60 S18       29.82R
6HR MIN TEMP:  79; 6HR MAX TEMP:  92;

MEDICINE LODGE   N/A     80  64  58 S18G26    29.81F
NEWTON         CLOUDY    75  66  73 S18       29.86
PARSONS        CLOUDY    75  65  70 S8        29.93F
6HR MIN TEMP:  75; 6HR MAX TEMP:  85;

WICHITA INTL   MOCLDY    78  66  66 S22G31    29.84F
6HR MIN TEMP:  78; 6HR MAX TEMP:  88;

WICHITA JABRA  CLOUDY    76  67  73 S16G24    29.85F
6HR MIN TEMP:  75; 6HR MAX TEMP:  85;

WICHITA MCCONL MOCLDY    77  65  66 S20G30    29.85F
WINFIELD       MOCLDY    76  67  73 S18G25    29.88F
6HR MIN TEMP:  76; 6HR MAX TEMP:  85;

$$

KSZ007>012-019>026-033>040-048>060-102>105-280700-
NORTHEAST KANSAS

CITY           SKY/WX    TMP DP  RH WIND       PRES   REMARKS
CONCORDIA      MOCLDY    79  66  64 S23G33    29.74F
6HR MIN TEMP:  78; 6HR MAX TEMP:  88;

EMPORIA        CLEAR     73  65  75 S16G25    29.87S
6HR MIN TEMP:  73; 6HR MAX TEMP:  82;

LAWRENCE       CLEAR     75  66  73 SE13      29.87F
6HR MIN TEMP:  74; 6HR MAX TEMP:  81;

MANHATTAN      PTCLDY    77  65  66 S16G29    29.81R
6HR MIN TEMP:  77; 6HR MAX TEMP:  85;

MARYSVILLE     CLOUDY    77  64  65 S15G24    29.77F
OLATHE IND     CLEAR     73  64  73 S14       29.89F
6HR MIN TEMP:  72; 6HR MAX TEMP:  80;

OLATHE EXE     CLOUDY    71  65  81 S14       29.88F
6HR MIN TEMP:  71; 6HR MAX TEMP:  78;

SALINA         PTCLDY    82  64  54 S21G33    29.79R
6HR MIN TEMP:  82; 6HR MAX TEMP:  94;

TOPEKA BILLARD PTCLDY    76  65  68 S14G22    29.85R
6HR MIN TEMP:  75; 6HR MAX TEMP:  81;

TOPEKA FORBES  PTCLDY    77  65  66 S13G21    29.86R
6HR MIN TEMP:  76; 6HR MAX TEMP:  82;

$$



USA.gov is the U.S. government's official web portal to all federal, state and local government web resources and services.